Dewpoint
11 11 10 11 15 14 12 8 8 9 8 7 8 9 10 11 12 12 12 14 15 15 15 14 15 24 30 32 35 55 64 66 66 66 65 64 64 64 65 66 66 66 66 66
-6 -11 5 -3 -4 -3 11 10 9 10 9 8 7 6 11 12 11 12 12 12 13 14 15 15 22 37 42 42 46 57 64 66 66 66 65 64 64 64 65 64 66 66 66 66
-4 -6 -2 -2 -3 -7 -7 1 2 6 4 7 6 7 9 11 11 13 14 15 15 15 15 15 29 45 49 51 53 56 60 63 63 63 63 63 64 64 63 63 64 64 66 66
-0 -1 1 -2 -3 -1 -3 11 16 13 12 7 6 0 3 6 12 13 14 15 15 15 15 16 39 48 51 53 53 55 57 58 57 55 54 58 61 61 63 63 64 64 64 65
2 1 -2 -4 3 7 8 9 17 15 13 10 4 7 4 8 9 12 13 14 15 16 16 17 40 49 51 51 52 52 54 57 58 58 56 56 56 59 60 63 63 64 63 64
3 3 0 3 5 7 7 6 13 15 14 7 5 10 6 5 21 27 34 37 37 33 17 24 44 49 50 50 50 54 55 56 56 56 57 56 57 58 59 60 62 63 63 63
4 3 4 8 7 8 8 8 3 2 12 5 16 13 17 30 34 36 38 37 37 36 31 24 45 49 48 48 51 53 53 53 55 56 56 56 56 56 58 59 60 60 60 61
6 3 8 9 9 9 8 13 2 2 4 9 13 10 10 28 31 36 38 37 38 37 35 27 46 48 46 48 48 48 49 49 50 50 50 50 52 55 57 58 59 60 60 60
7 8 9 9 11 9 7 6 11 12 13 13 11 14 23 28 30 35 37 37 37 39 40 42 47 47 48 48 48 48 47 48 48 48 47 48 49 50 52 56 58 60 60 60
11 7 10 12 12 10 15 16 11 12 7 6 5 14 22 27 30 34 35 35 38 39 41 44 47 48 49 48 48 47 47 46 46 46 47 47 48 49 51 55 57 58 59 60
20 16 10 14 10 14 20 20 21 18 15 10 11 16 28 27 32 34 36 36 38 39 39 46 48 48 47 46 45 45 44 43 44 44 45 46 47 48 48 48 49 52 57 59
21 20 17 13 15 18 19 21 25 19 15 21 20 17 32 33 34 35 36 37 39 40 40 45 46 46 44 42 41 41 40 40 42 43 44 45 46 46 46 46 45 48 51 56
22 18 14 11 12 20 16 18 19 26 26 19 16 13 31 33 33 36 37 38 39 40 41 42 41 40 39 38 37 37 37 38 40 42 42 42 42 43 43 42 44 44 46 50
27 22 17 13 14 18 20 21 21 19 16 16 15 14 29 32 33 37 37 38 38 38 38 38 38 37 37 35 34 34 35 37 39 39 39 39 38 38 38 40 41 41 42 45
24 20 21 20 21 21 21 22 24 22 22 20 20 25 29 32 35 37 37 37 36 35 36 36 35 34 32 31 30 31 32 34 35 36 37 35 35 36 36 37 38 39 41 42
27 22 24 22 23 22 20 21 24 25 25 25 24 24 30 31 35 35 34 34 33 32 31 30 32 31 29 28 28 29 29 29 32 34 32 32 32 33 34 35 36 38 40 41
28 26 22 17 19 19 19 21 23 26 26 27 22 27 29 28 33 32 32 30 29 28 26 26 27 28 28 27 27 27 27 27 29 29 28 29 30 31 32 34 35 37 38 38
26 23 23 19 19 12 21 21 22 26 25 25 26 27 28 30 33 31 30 28 26 25 25 25 25 26 25 25 25 26 26 25 26 25 25 26 28 30 31 33 34 35 36 37
30 24 22 18 18 18 18 21 22 22 23 27 27 28 27 29 31 31 29 27 26 24 24 23 23 24 24 23 23 24 24 24 24 24 24 25 27 29 30 31 33 34 35 37
22 23 22 20 16 13 22 24 27 26 19 28 29 27 28 28 23 27 29 27 25 24 23 23 22 22 22 22 22 22 22 22 22 23 24 25 27 28 29 31 32 33 34 36
19 19 17 18 15 19 26 27 26 15 16 29 30 29 28 26 28 31 27 25 24 23 23 23 20 20 20 20 21 22 21 21 22 23 24 25 26 27 28 29 29 30 32 36
19 18 18 18 14 9 29 25 19 26 30 30 30 30 29 30 28 26 25 24 22 22 21 22 20 19 20 19 20 21 20 22 22 22 23 23 25 26 27 27 28 29 31 34
18 22 22 21 22 28 31 29 31 31 30 30 30 30 27 26 25 25 24 22 21 21 20 20 21 19 19 19 20 20 22 21 21 22 22 22 24 24 25 26 26 27 29 32
23 29 25 24 26 29 29 32 32 32 31 31 28 27 26 25 24 23 23 22 21 20 20 20 21 19 19 20 20 21 21 22 21 21 21 22 22 23 23 24 25 26 27 28
19 29 27 24 28 29 30 30 31 30 30 26 26 26 25 24 24 25 23 23 21 20 20 20 20 19 19 20 21 21 23 21 20 20 21 20 21 21 21 22 22 24 26 28
29 27 21 18 27 26 29 29 29 27 25 25 24 24 24 23 22 23 23 24 22 21 21 19 19 19 19 19 20 21 23 22 20 19 20 19 19 19 20 19 19 21 24 28
Wind_Speed
5 3 10 11 9 15 14 16 24 22 18 11 24 35 38 25 14 20 23 23 24 25 20 13 17 18 18 18 25 23 22 21 23 21 20 17 20 18 17 16 17 18 20 22
7 9 2 13 10 12 10 15 19 15 11 6 17 32 33 24 20 21 22 22 23 22 22 18 17 5 2 10 18 27 25 23 22 20 16 7 13 13 19 16 17 19 21 22
4 9 12 7 14 12 10 10 13 17 12 9 15 29 18 10 12 13 16 18 18 18 20 19 15 3 9 3 4 14 17 17 16 17 14 7 8 6 9 13 15 16 17 19
3 3 12 16 10 10 6 16 16 15 14 15 1 24 42 23 20 16 18 14 19 21 20 19 9 10 19 13 12 15 19 19 16 16 12 7 8 10 9 14 17 17 20 19
4 8 16 8 8 12 4 15 14 15 18 12 32 8 29 14 25 16 21 24 26 22 20 23 20 22 20 21 19 15 15 17 15 16 16 9 2 5 3 7 12 16 15 19
1 6 3 2 9 6 17 16 14 10 9 17 27 8 25 26 16 18 24 25 25 27 24 20 13 16 11 22 22 15 18 17 16 13 15 17 9 3 5 6 10 12 14 14
7 4 2 14 10 7 23 20 12 9 6 15 16 15 4 17 19 15 25 28 29 22 26 23 15 19 19 17 22 23 20 14 14 16 13 15 10 4 3 7 9 11 11 12
3 4 13 14 6 6 11 2 4 8 13 20 20 11 16 15 19 21 18 23 30 33 23 22 25 22 20 17 18 20 25 21 13 16 16 18 11 6 4 4 8 10 12 14
6 3 15 6 5 6 5 8 7 11 19 18 12 16 7 25 23 26 22 25 30 31 31 6 16 21 18 13 15 18 20 22 20 18 16 15 11 9 8 8 7 8 9 12
3 12 2 1 6 5 8 8 7 4 10 16 15 13 8 23 22 16 19 25 25 29 29 24 15 15 15 18 17 18 25 24 18 14 12 10 11 11 12 10 10 10 10 11
4 2 5 4 2 5 6 5 5 5 7 11 11 3 2 10 14 13 12 17 17 25 25 18 16 24 23 20 23 22 27 22 14 12 10 11 12 10 9 10 11 13 12 12
2 3 7 16 19 9 3 3 3 3 6 6 5 6 8 4 8 8 8 17 16 12 20 17 19 28 24 24 25 24 25 16 15 16 13 13 12 12 11 12 14 13 14 16
0 2 7 11 4 2 4 6 12 4 5 7 3 7 6 10 11 12 16 21 23 17 13 21 23 22 20 21 17 16 19 19 20 16 17 15 15 12 12 14 13 14 16 17
3 4 7 12 15 9 11 16 19 11 9 11 14 19 15 14 10 13 19 19 21 23 25 23 19 20 17 16 18 18 19 18 17 17 17 15 14 15 14 13 14 14 13 15
2 7 11 21 22 18 18 10 15 7 5 6 12 5 16 20 12 13 13 16 19 18 19 21 21 19 21 23 20 21 18 15 17 16 14 15 16 15 15 15 15 15 14 14
1 5 5 16 19 14 4 12 13 7 10 6 6 4 20 18 15 18 20 18 19 20 22 24 23 22 22 20 20 17 17 18 16 13 15 17 17 16 15 17 18 17 16 15
2 3 3 5 6 8 3 11 10 10 11 10 9 13 20 18 14 16 17 17 18 17 18 19 19 17 18 18 20 20 19 18 16 15 16 16 17 17 17 18 18 18 19 18
5 4 3 6 8 2 4 6 8 4 9 15 13 16 18 17 7 14 16 17 17 18 19 18 16 15 14 16 18 19 17 16 15 15 17 18 19 18 18 18 18 19 19 19
11 4 4 2 4 2 4 6 7 5 3 14 15 16 17 21 8 14 16 15 14 14 14 16 17 17 16 16 18 16 16 17 16 18 19 19 19 19 19 19 20 20 19 20
4 3 3 3 3 3 1 16 17 5 5 13 16 16 16 18 12 11 15 15 12 12 13 13 14 14 16 17 18 17 18 18 20 20 20 19 19 19 20 20 20 19 19 20
6 4 3 3 2 2 6 19 12 3 6 13 11 9 12 9 6 12 13 13 13 14 14 15 15 14 15 16 17 16 15 18 19 19 19 19 18 19 18 20 19 20 20 19
2 2 3 2 2 3 9 4 4 6 8 7 8 9 11 12 12 16 14 16 20 20 21 19 18 18 16 16 17 18 19 22 21 20 20 20 20 19 18 20 20 20 19 16
2 3 3 4 4 3 2 1 6 6 7 6 7 7 9 11 11 14 14 16 17 16 17 18 17 19 18 19 18 21 23 24 23 21 21 22 22 20 19 19 20 20 19 15
2 3 3 2 2 3 0 1 3 4 7 6 6 7 8 10 10 13 14 15 17 19 19 19 18 21 21 20 18 17 21 24 23 24 24 22 22 23 19 17 15 17 18 16
4 7 3 4 2 3 6 2 5 8 2 5 7 8 9 11 12 12 10 11 12 14 16 16 17 18 20 21 20 19 18 21 21 20 19 21 19 19 19 15 13 13 15 16
6 4 3 4 4 2 3 7 5 4 5 6 7 9 10 12 13 14 15 9 11 14 15 17 18 19 20 20 20 22 20 20 19 19 17 18 17 15 14 14 15 14 16 22
Wind_Direction
12 254 241 265 266 274 275 280 283 286 279 288 288 288 289 291 274 273 280 283 279 281 279 284 301 304 292 248 207 198 188 184 171 175 177 180 189 193 191 194 192 189 198 200
10 266 318 328 331 314 286 282 284 285 275 276 290 285 283 285 276 270 274 277 275 275 283 300 299 304 277 276 224 178 185 177 178 178 178 164 178 198 197 195 193 193 197 201
287 265 323 330 329 314 295 274 287 292 304 268 277 282 279 299 283 274 275 273 280 273 282 290 284 182 106 73 92 140 152 151 160 161 147 116 116 102 173 198 209 205 199 202
279 279 348 343 349 12 330 340 311 306 324 303 306 285 289 282 281 276 281 292 303 298 298 285 228 146 129 126 104 109 124 132 145 154 157 166 188 204 202 203 212 210 203 202
289 340 329 342 332 360 353 321 294 300 294 311 284 224 282 294 299 300 293 285 281 286 275 270 215 166 157 141 131 125 116 108 104 108 113 109 151 241 248 214 214 215 215 209
246 274 37 55 339 356 349 341 312 285 268 261 280 280 269 299 346 344 339 328 324 313 286 271 210 151 162 137 127 111 112 108 98 92 105 99 88 25 301 266 236 225 229 218
331 13 31 31 2 342 1 352 323 294 242 253 346 335 341 358 352 351 335 334 331 317 270 258 186 163 156 139 124 121 107 114 124 110 90 96 90 105 245 259 239 242 244 236
355 307 24 360 25 307 315 289 302 290 294 300 305 278 281 9 2 355 346 351 358 353 318 231 191 169 150 134 118 122 129 104 73 79 84 63 45 16 333 301 265 245 238 246
326 248 331 341 6 333 311 260 291 274 281 278 260 260 257 360 355 353 355 3 3 1 353 355 153 141 125 111 95 95 77 76 65 60 51 60 42 19 334 325 308 269 257 257
322 305 157 55 306 305 324 281 287 279 285 273 264 280 330 337 331 344 349 344 5 356 354 12 40 57 81 82 79 75 73 64 42 36 39 49 38 20 1 346 339 317 294 276
1 266 284 320 250 313 4 12 313 264 250 280 303 276 240 296 301 328 348 350 3 340 343 358 60 66 57 52 57 54 52 47 27 10 18 36 36 14 3 357 351 340 319 294
353 308 303 297 290 224 234 14 251 287 291 281 275 288 100 321 352 351 9 347 328 341 333 358 56 65 57 45 39 38 39 17 12 6 4 21 21 8 356 359 351 340 329 318
116 358 323 321 17 110 289 289 267 219 265 253 281 257 81 24 15 12 10 23 25 51 15 33 28 57 54 46 36 34 33 11 4 347 358 7 9 2 353 348 342 341 338 320
168 199 216 250 266 279 289 287 305 293 273 279 262 287 356 358 1 5 34 30 32 28 14 24 25 32 38 39 29 21 27 10 349 348 345 356 351 344 345 338 338 330 324 313
195 261 232 250 258 264 274 322 326 309 302 277 310 61 2 351 344 32 42 34 24 29 21 22 9 14 21 15 17 19 13 358 353 338 334 342 343 341 337 336 332 323 318 317
149 263 271 280 258 257 172 3 335 340 359 309 13 55 0 353 10 21 21 25 24 16 15 11 12 11 14 13 6 3 358 354 348 337 335 341 338 335 335 333 330 326 324 327
217 253 271 269 334 316 183 355 321 340 23 340 6 344 343 343 359 28 17 21 20 24 16 13 8 5 3 360 358 355 349 349 338 340 342 338 329 326 334 329 328 327 326 323
278 259 245 283 331 221 171 46 330 1 42 17 355 347 340 330 347 42 24 24 28 11 3 1 359 354 358 358 351 341 340 341 334 340 342 336 327 328 330 329 327 324 322 318
229 258 290 271 297 114 149 349 333 314 40 7 352 354 345 332 282 55 33 27 22 15 2 355 348 347 351 353 346 340 340 338 343 344 335 327 328 326 327 327 324 321 317 312
33 64 191 317 266 231 18 324 321 213 222 0 349 356 352 356 8 351 17 17 17 11 4 357 350 341 347 348 345 343 343 343 342 338 327 326 327 329 326 323 320 317 315 303
340 349 346 326 275 280 347 318 316 327 310 343 348 352 350 343 342 340 360 8 6 358 355 354 354 346 350 346 342 343 338 344 331 330 330 332 332 330 326 323 320 321 315 307
218 299 314 327 305 300 354 1 45 307 311 336 340 346 349 343 359 351 354 356 351 351 352 352 353 349 348 347 349 346 348 337 337 338 334 336 338 336 333 326 326 326 316 307
238 210 270 208 265 290 16 31 324 322 321 312 327 355 0 349 355 351 345 352 349 349 348 347 348 347 350 348 347 345 338 341 343 342 340 338 338 338 334 332 327 330 322 307
229 185 223 317 213 196 185 224 323 303 315 346 24 12 4 347 358 349 349 352 352 354 352 345 343 346 344 344 344 341 341 341 343 344 339 338 338 338 335 331 331 332 320 309
242 164 219 259 182 221 200 222 266 290 3 18 23 27 20 1 353 348 342 353 352 346 344 344 342 343 337 339 342 341 340 349 346 340 337 336 336 327 326 322 313 326 325 311
191 193 196 253 172 206 273 315 328 87 53 38 28 10 18 11 353 349 344 350 341 342 339 347 347 347 342 341 343 345 349 350 339 340 341 332 325 318 317 325 332 325 349 5